Weather Roundup
Issued by NWS Corpus Christi, TX

Current Version | Previous Version | Text Only | Print | Product List | Glossary On
Versions: 1 2 3 4 5 6 7 8 9 10 11 12 13 14 15 16 17 18 19 20 21 22 23 24 25 26 27 28 29 30 31 32 33 34 35 36 37 38 39 40 41 42 43 44 45 46 47 48 49 50
157
ASUS44 KCRP 150210
HRRCRP

SOUTH TEXAS REGIONAL WEATHER ROUNDUP
NATIONAL WEATHER SERVICE CORPUS CHRISTI TX
800 PM CST THU DEC 14 2017


TXZ229>244-150300-
...CORPUS CHRISTI AREA OBSERVATIONS...

CITY           SKY/WX    TMP DP  RH WIND       PRES   REMARKS
CORPUS CHRISTI CLOUDY    60  56  86 NE13      29.99S
NAS CORPUS CHR LGT RAIN  63  57  81 NE14      29.99R
ROCKPORT       CLOUDY    59  52  77 NE7       30.01R
KINGSVILLE ARP CLOUDY    62  61  97 N3        30.00R
KINGSVILLE NAS CLOUDY    62  60  93 NE6       29.99R
ALICE          CLOUDY    60  56  86 NE7       30.00R
$$

...VICTORIA AREA OBSERVATIONS...

CITY           SKY/WX    TMP DP  RH WIND       PRES   REMARKS
PORT LAVACA    CLOUDY    56  49  75 N5        30.03R
VICTORIA       PTCLDY    57  44  62 N9        30.03R
BEEVILLE       FAIR      58  43  57 N6        30.04R
PLEASANTON     CLOUDY    56  39  52 NE3       30.04R
SAN ANTONIO    CLOUDY    58  33  39 N9        30.06R
$$

...LAREDO AREA OBSERVATIONS...

CITY           SKY/WX    TMP DP  RH WIND       PRES   REMARKS
LAREDO         PTCLDY    56  50  80 MISG        N/A
COTULLA        PTCLDY    59  41  51 NE9       30.04R
DEL RIO        CLOUDY    57  38  48 N8        30.08R
MCALLEN        CLOUDY    63  55  75 CALM      29.97S
HEBBRONVILLE   CLOUDY    59  53  79 CALM      30.02R
$$

...OTHER TEXAS OBSERVATIONS...

CITY           SKY/WX    TMP DP  RH WIND       PRES   REMARKS
BROWNSVILLE    CLOUDY    65  61  87 N7        29.98R
HOUSTON        CLOUDY    56  46  69 N6        30.05R
COL. STATION   CLOUDY    53  37  54 N8        30.08R
AUSTIN         CLOUDY    57  32  38 N17       30.08R
WACO           CLOUDY    51  27  39 N10       30.14R
FORT WORTH     PTCLDY    49  28  44 N12       30.15R
WICHITA FALLS  CLEAR     43  25  49 N6        30.20R
LUBBOCK        PTCLDY    37  25  61 N8        30.22R
EL PASO        MOCLDY    49  19  30 E9        30.12R
$$

...MARINE OBSERVATIONS...

STATION/POSITION TIME  SKY/WX   TEMP    WIND        PRES    VSBY  WAVE   SWELL
                                AIR SEA DIR/SP/G                  HT/PER HT/PER
                 (UTC)          (F)     (DEG/KT/KT) (MB)    (MI)  (FT/S) (FT/S)
PORT ARANSAS     NOT AVBL
BUOY 90 E PORT A 0050            70 71  360/ 12/ 16 1014.6          2/ 5
BUOY 200 E PT IS 0050            75 77  160/  8/ 10 1014.5          2/ 4   2/ 4
BUOY 15 E GALVES 0050            60 60   60/  2/  4 1016.3          1
$$




USA.gov is the U.S. government's official web portal to all federal, state and local government web resources and services.